Flag for Switzerland Weather past 2 weeks in Montreux, Vaud, Switzerland

Now
51 °F

Cool.


Feels Like: 51 °F
Forecast: 43 / 54 °F
Wind: 2 mph from Southeast

Location: Aigle

Current Time: Sep 4, 2015 at 8:33:47 AM

Latest Report: Sep 4, 2015 at 7:00 AM


Visibility: N/A

Pressure: 30.03 "Hg

Humidity: 97%

Dew point: 50 °F

Location of MontreuxLocation

Historic Weather in Montreux — Graph

°F

Montreux temperature yesterday

Maximum temperature yesterday: 68 °F (at 5:00 PM)
Minimum temperature yesterday: 55 °F (at 4:00 AM)
Average temperature yesterday: 62 °F

Past Weeks' High & Low Weather Summary

 TemperatureHumidityPressure
High83 °F (Aug 28, 5:00 PM)98% (Aug 25, 3:00 AM)30.24 "Hg (Aug 25, 3:00 AM)
Low51 °F (Aug 20, 7:00 AM)37% (Aug 20, 6:00 PM)29.70 "Hg (Aug 24, 5:00 AM)
Average66 °F75%30.01 "Hg
* Reported Aug 20 7:00 AM — Sep 4 7:00 AM, Montreux, Weather by CustomWeather, © 2015

Note: Actual official high and low records may vary slightly from our data, if they occured in-between our weather recording intervals... More about our weather records

Advertising

Montreux weather history for previous 24 hours

 ConditionsComfort  
Time TempWeatherWind HumidityBarometerVisibility
7:00 AM
Fri, Sep 4
51 °FCool.2 mph97%30.03 "HgN/A
6:00 AM51 °FCool.No wind97%30.03 "HgN/A
5:00 AM53 °FPassing clouds.No wind95%30.03 "Hg16 mi
4:00 AM54 °FCool.1 mph97%30.03 "HgN/A
3:00 AM57 °FCool.1 mph94%30.03 "HgN/A
2:00 AM58 °FCool.No wind94%30.03 "HgN/A
1:00 AM58 °FCool.1 mph94%30.03 "HgN/A
12:00 AM59 °FCool.No wind84%30.02 "HgN/A
10:00 PM
Thu, Sep 3
62 °FCool.10 mph64%30.00 "HgN/A
9:00 PM61 °FCool.2 mph78%29.97 "HgN/A
8:00 PM63 °FOvercast.1 mph74%29.96 "Hg19 mi
7:00 PM65 °FMild.3 mph61%29.94 "HgN/A
6:00 PM66 °FMild.3 mph52%29.93 "HgN/A
5:00 PM68 °FOvercast.8 mph51%29.92 "Hg16 mi
4:00 PM67 °FMild.7 mph54%29.94 "HgN/A
3:00 PM68 °FMild.9 mph56%29.94 "HgN/A
2:00 PM67 °FOvercast.9 mph55%29.94 "Hg14 mi
1:00 PM67 °FMild.9 mph59%29.94 "HgN/A
12:00 PM65 °FMild.8 mph60%29.95 "HgN/A
11:00 AM66 °FOvercast.9 mph57%29.94 "Hg16 mi
10:00 AM64 °FMild.9 mph67%29.96 "HgN/A
9:00 AM62 °FCool.No wind82%29.97 "HgN/A
8:00 AM58 °FOvercast.No wind96%29.97 "Hg16 mi
Weather by CustomWeather, © 2015

See weather overviewHow to use our weather pages